Regional Weather Roundup
Issued by NWS

Home | Current Version | Previous Version | Graphics & Text | Print | Product List | Glossary On
Versions: 1 2 3 4 5 6 7 8 9 10 11 12 13 14 15 16 17 18 19 20 21 22 23 24 25 26 27 28 29 30 31 32 33 34 35 36 37 38 39 40 41 42 43 44 45 46 47 48 49 50
000
ASUS45 KBOU 181607
RWRCO

WEATHER ROUNDUP FOR COLORADO
NATIONAL WEATHER SERVICE DENVER/BOULDER CO
900 AM MST THU DEC 18 2014

NOTE: "FAIR" INDICATES FEW OR NO CLOUDS BELOW 12000 FEET WITH NO
SIGNIFICANT WEATHER AND/OR OBSTRUCTIONS TO VISIBILITY.

COZ001>005-013-030-031-181700-
...NORTHWEST COLORADO...

CITY           SKY/WX    TMP DP  RH WIND       PRES   REMARKS
CRAIG          FOG       27  24  89 SW3       30.14R VSB 3/4
HAYDEN         CLOUDY    21  18  86 CALM      30.12R
MEEKER         CLOUDY    25  22  88 SE5       30.12R FOG     WCI  19
MOUNT WERNER   NOT AVBL
STEAMBOAT SPGS CLOUDY    23  21  93 CALM      30.11R
WALDEN         CLOUDY     0  -6  78 CALM      30.09R VSB 1/4
$$

COZ006>008-011-181700-
...WEST CENTRAL VALLEYS...

CITY           SKY/WX    TMP DP  RH WIND       PRES   REMARKS
GRAND JUNCTION CLOUDY    33  32  96 NW3       30.14R
MONTROSE       LGT SNOW  32  32 100 CALM      30.15R FOG
EAGLE          LGT SNOW  30  28  93 CALM      30.14R FOG
RIFLE          LGT SNOW  32  31  96 CALM      30.13R FOG
DELTA          LGT RAIN  35  35  99 CALM      30.14R
NUCLA          LGT SNOW  32  32 100 SE5       30.17R WCI  27
$$

COZ017>023-064>068-181700-
...SOUTHWEST COLORADO...

CITY           SKY/WX    TMP DP  RH WIND       PRES   REMARKS
DURANGO        CLOUDY    30  28  92 CALM      30.14R
CORTEZ         CLOUDY    33  32  96 CALM      30.14R
PAGOSA SPRINGS CLOUDY    29  28  96 CALM      30.13R
TELLURIDE      NOT AVBL
WOLF CREEK PAS LGT SNOW  12  12 100 MISG      30.07R
$$

COZ009-010-012-014-032>034-037-058>063-181700-
...CENTRAL COLORADO...

CITY           SKY/WX    TMP DP  RH WIND       PRES   REMARKS
ASPEN          CLOUDY    24  19  81 S5        30.08R HAZE    WCI  18
BUENA VISTA    SUNNY     22  15  75 CALM      30.08R
COPPER MTN     MOSUNNY   18  10  73 W7        30.05R WCI   8
BERTHOUD PASS  PTSUNNY    9   3  78 MISG      30.03R
COTTONWOOD PAS SUNNY     27  19  74 SE6       30.05R WCI  20
GUNNISON       CLOUDY    23  18  80 CALM      30.13R
KREMMLING      LGT SNOW  18  14  86 CALM      30.13R
LEADVILLE      MOSUNNY   17   9  70 N6        30.04S WCI   9
MONARCH PASS     N/A    N/A N/A N/A MISG        N/A
SALIDA         SUNNY     26  17  68 N10       30.15R WCI  16
SUNLIGHT       LGT SNOW N/A N/A N/A CALM      30.09R VSB 1
WILKERSON PASS MOSUNNY   18  12  79 W8        30.05R WCI   7
$$

COZ069>075-181700-
...SAN LUIS VALLEY/SANGRE DE CRISTO MOUNTAINS...

CITY           SKY/WX    TMP DP  RH WIND       PRES   REMARKS
ALAMOSA        CLOUDY    26  22  84 W6        30.11R WCI  19
LA VETA PASS   CLOUDY    21  19  93 W10G20    30.03R FOG     WCI  10
SAGUACHE       CLOUDY    23  19  86 NW9       30.12R WCI  13
$$

COZ035-036-038>040-181700-
...NORTHERN COLORADO FRONT RANGE...

CITY           SKY/WX    TMP DP  RH WIND       PRES   REMARKS
DENVER INTL AP PTSUNNY   28  27  96 S6        30.04R FOG     WCI  22
DMNS CITY PARK   N/A     33  29  84 SW1       30.05R
AURORA         PTSUNNY   28  28 100 CALM      30.04R
FRONT RANGE AP NOT AVBL
ERIE MUNI ARPT   N/A     28  26  92 CALM      30.05S
BOULDER MUN AP MOSUNNY   32  27  80 CALM      30.04R
CENTENNIAL     PTSUNNY   31  27  85 NW3       30.03R
BROOMFIELD     PTSUNNY   32  27  80 MISG      30.04R
FORT COLLINS   MOSUNNY   27  21  80 CALM      30.06R
LONGMONT       MOSUNNY   30  27  86 CALM      30.07R
$$

COZ041-046-047-076>085-087-088-181700-
...PIKES PEAK/PALMER DIVIDE AND SOUTHERN FOOTHILLS...

CITY           SKY/WX    TMP DP  RH WIND       PRES   REMARKS
COLO. SPRINGS  MOSUNNY   33  32  96 NE5       30.04R WCI  29
A. F. ACADEMY  MOSUNNY   28  28  99 N5        30.03R FOG     WCI  23
ELLICOTT       NOT AVBL
FALCON         SUNNY     32  31  95 SW3       30.04R
FORT CARSON    SUNNY     30  29  99 N7        30.03R WCI  23
LIMON          CLOUDY    29  25  85 CALM      30.06R
MONUMENT HILL  MOSUNNY   30  28  93 S9        30.01R WCI  22
TRINIDAD       SUNNY     32  25  75 W7        30.05R WCI  26
$$

COZ042>045-048>051-090-091-181700-
...NORTHEAST COLORADO...

CITY           SKY/WX    TMP DP  RH WIND       PRES   REMARKS
GREELEY ARPT   SUNNY     21  14  73 CALM      30.05R
AKRON          MOSUNNY   21  19  92 W12       30.04R FOG     WCI   9
BURLINGTON     SUNNY     20  17  88 W7        30.07R WCI  11
WRAY           SUNNY     17  16  95 W6        30.08S WCI   9
STERLING       MOSUNNY   19  18  93 SW6       30.06S WCI  11
HOLYOKE        NOT AVBL
FORT MORGAN    CLOUDY    22  18  85 W9        30.06R WCI  12
$$

COZ086-089-092>099-181700-
...SOUTHEAST COLORADO...

CITY           SKY/WX    TMP DP  RH WIND       PRES   REMARKS
PUEBLO         SUNNY     24  22  91 W6        30.06  WCI  17
LA JUNTA       SUNNY     30  25  81 W6        30.08R WCI  24
LAMAR          SUNNY     30  25  81 CALM      30.09S
SPRINGFIELD      N/A     26  25  96 CALM      30.08R
$$



USA.gov is the U.S. government's official web portal to all federal, state and local government web resources and services.